| time (UTC) | temp F | wind direction | speed MPH | gust MPH | rain 1hr in | rain 24hr in | rain mn in | humidity % | barometer mb |
| 20260504025507 | 57 | 253 | 6.0 | 8.0 | 0.00 | 0.00 | 0.00 | 69 | 1008.2 |
| 20260504025012 | 57 | 256 | 6.0 | 8.0 | 0.00 | 0.00 | 0.00 | 68 | 1008.1 |
| 20260504024528 | 57 | 257 | 6.0 | 8.0 | 0.00 | 0.00 | 0.00 | 69 | 1008.0 |
| 20260504024009 | 57 | 236 | 5.0 | 8.0 | 0.00 | 0.00 | 0.00 | 68 | 1008.0 |
| 20260504023504 | 57 | 249 | 6.0 | 7.0 | 0.00 | 0.00 | 0.00 | 69 | 1008.0 |
| 20260504023005 | 57 | 238 | 6.0 | 7.0 | 0.00 | 0.00 | 0.00 | 69 | 1008.0 |
| 20260504022506 | 57 | 239 | 6.0 | 7.0 | 0.00 | 0.00 | 0.00 | 69 | 1008.0 |
| 20260504022004 | 57 | 232 | 6.0 | 7.0 | 0.00 | 0.00 | 0.00 | 68 | 1008.0 |
| 20260504021502 | 58 | 241 | 6.0 | 7.0 | 0.00 | 0.00 | 0.00 | 67 | 1008.1 |
| 20260504021004 | 58 | 236 | 6.0 | 7.0 | 0.00 | 0.00 | 0.00 | 67 | 1008.1 |
| 20260504020503 | 58 | 231 | 6.0 | 8.0 | 0.00 | 0.00 | 0.00 | 67 | 1008.0 |
| 20260504020003 | 58 | 240 | 7.0 | 8.0 | 0.00 | 0.00 | 0.00 | 67 | 1007.9 |
| 20260504015503 | 58 | 240 | 7.0 | 8.0 | 0.00 | 0.00 | 0.00 | 66 | 1007.9 |
| 20260504015005 | 59 | 249 | 7.0 | 8.0 | 0.00 | 0.00 | 0.00 | 66 | 1007.9 |
| 20260504014506 | 58 | 251 | 5.0 | 7.0 | 0.00 | 0.00 | 0.00 | 65 | 1007.8 |
| 20260504014003 | 58 | 238 | 5.0 | 7.0 | 0.00 | 0.00 | 0.00 | 65 | 1007.8 |
| 20260504013503 | 59 | 231 | 6.0 | 7.0 | 0.00 | 0.00 | 0.00 | 65 | 1007.8 |
| 20260504013006 | 59 | 224 | 6.0 | 7.0 | 0.00 | 0.00 | 0.00 | 65 | 1007.8 |
| 20260504012504 | 59 | 231 | 6.0 | 7.0 | 0.00 | 0.00 | 0.00 | 64 | 1007.7 |
| 20260504012004 | 59 | 221 | 6.0 | 7.0 | 0.00 | 0.00 | 0.00 | 63 | 1007.8 |
| 20260504011504 | 59 | 232 | 5.0 | 7.0 | 0.00 | 0.00 | 0.00 | 62 | 1007.7 |
| 20260504011004 | 60 | 233 | 6.0 | 7.0 | 0.00 | 0.00 | 0.00 | 61 | 1007.7 |
| 20260504010503 | 60 | 243 | 5.0 | 7.0 | 0.00 | 0.00 | 0.00 | 60 | 1007.6 |
| 20260504010006 | 61 | 233 | 6.0 | 7.0 | 0.00 | 0.00 | 0.00 | 59 | 1007.6 |
| 20260504005504 | 61 | 242 | 5.0 | 6.0 | 0.00 | 0.00 | 0.00 | 58 | 1007.6 |
| 20260504005004 | 62 | 233 | 5.0 | 7.0 | 0.00 | 0.00 | 0.00 | 57 | 1007.6 |
| 20260504004503 | 62 | 233 | 5.0 | 7.0 | 0.00 | 0.00 | 0.00 | 56 | 1007.5 |
| 20260504004003 | 63 | 231 | 4.0 | 5.0 | 0.00 | 0.00 | 0.00 | 55 | 1007.6 |
| 20260504003503 | 64 | 243 | 3.0 | 6.0 | 0.00 | 0.00 | 0.00 | 53 | 1007.7 |
| 20260504003006 | 65 | 250 | 4.0 | 7.0 | 0.00 | 0.00 | 0.00 | 52 | 1007.7 |
| 20260504002503 | 65 | 246 | 5.0 | 8.0 | 0.00 | 0.00 | 0.00 | 51 | 1007.6 |
| 20260504002004 | 66 | 249 | 6.0 | 9.0 | 0.00 | 0.00 | 0.00 | 51 | 1007.6 |
| 20260504001508 | 66 | 245 | 7.0 | 10.0 | 0.00 | 0.00 | 0.00 | 49 | 1007.7 |
| 20260504001004 | 67 | 242 | 8.0 | 11.0 | 0.00 | 0.00 | 0.00 | 48 | 1007.6 |
| 20260504000504 | 67 | 236 | 8.0 | 12.0 | 0.00 | 0.00 | 0.00 | 48 | 1007.6 |
| 20260504000019 | 67 | 238 | 9.0 | 12.0 | 0.00 | 0.00 | 0.00 | 48 | 1007.5 |
| 20260503235506 | 67 | 248 | 9.0 | 12.0 | 0.00 | 0.00 | 0.00 | 48 | 1007.6 |
| 20260503235004 | 67 | 263 | 9.0 | 13.0 | 0.00 | 0.00 | 0.00 | 47 | 1007.6 |
| 20260503234508 | 67 | 251 | 10.0 | 14.0 | 0.00 | 0.00 | 0.00 | 47 | 1007.6 |
| 20260503234004 | 67 | 250 | 10.0 | 15.0 | 0.00 | 0.00 | 0.00 | 46 | 1007.5 |
| 20260503233505 | 67 | 250 | 12.0 | 15.0 | 0.00 | 0.00 | 0.00 | 45 | 1007.5 |
| 20260503233007 | 67 | 240 | 12.0 | 14.0 | 0.00 | 0.00 | 0.00 | 45 | 1007.6 |
| 20260503232504 | 67 | 247 | 10.0 | 13.0 | 0.00 | 0.00 | 0.00 | 46 | 1007.7 |
| 20260503232004 | 68 | 213 | 11.0 | 14.0 | 0.00 | 0.00 | 0.00 | 45 | 1007.7 |
| 20260503231509 | 68 | 248 | 11.0 | 15.0 | 0.00 | 0.00 | 0.00 | 44 | 1007.7 |
| 20260503231004 | 68 | 242 | 12.0 | 16.0 | 0.00 | 0.00 | 0.00 | 44 | 1007.7 |
| 20260503230504 | 68 | 233 | 13.0 | 18.0 | 0.00 | 0.00 | 0.00 | 43 | 1007.8 |
| 20260503230008 | 68 | 246 | 14.0 | 18.0 | 0.00 | 0.00 | 0.00 | 42 | 1007.7 |
| 20260503225504 | 68 | 251 | 13.0 | 20.0 | 0.00 | 0.00 | 0.00 | 43 | 1007.8 |
| 20260503225007 | 68 | 252 | 14.0 | 20.0 | 0.00 | 0.00 | 0.00 | 43 | 1007.8 |
| 20260503224508 | 68 | 233 | 14.0 | 18.0 | 0.00 | 0.00 | 0.00 | 43 | 1007.9 |
| 20260503224004 | 67 | 240 | 14.0 | 18.0 | 0.00 | 0.00 | 0.00 | 44 | 1008.0 |
| 20260503223504 | 68 | 236 | 16.0 | 20.0 | 0.00 | 0.00 | 0.00 | 42 | 1008.1 |
| 20260503223008 | 68 | 245 | 15.0 | 21.0 | 0.00 | 0.00 | 0.00 | 43 | 1008.1 |
| 20260503222503 | 68 | 250 | 15.0 | 23.0 | 0.00 | 0.00 | 0.00 | 42 | 1008.1 |
| 20260503222003 | 67 | 241 | 18.0 | 23.0 | 0.00 | 0.00 | 0.00 | 43 | 1008.2 |
| 20260503221508 | 67 | 224 | 18.0 | 22.0 | 0.00 | 0.00 | 0.00 | 44 | 1008.1 |
| 20260503221003 | 66 | 252 | 17.0 | 21.0 | 0.00 | 0.00 | 0.00 | 45 | 1008.2 |
| 20260503220502 | 66 | 253 | 16.0 | 24.0 | 0.00 | 0.00 | 0.00 | 43 | 1008.2 |
| 20260503220012 | 66 | 240 | 17.0 | 24.0 | 0.00 | 0.00 | 0.00 | 43 | 1008.3 |
| 20260503215504 | 66 | 235 | 19.0 | 22.0 | 0.00 | 0.00 | 0.00 | 43 | 1008.3 |
| 20260503215003 | 66 | 236 | 17.0 | 23.0 | 0.00 | 0.00 | 0.00 | 43 | 1008.4 |
| 20260503214509 | 66 | 241 | 17.0 | 25.0 | 0.00 | 0.00 | 0.00 | 44 | 1008.3 |
| 20260503214005 | 66 | 233 | 19.0 | 25.0 | 0.00 | 0.00 | 0.00 | 44 | 1008.2 |
| 20260503213504 | 66 | 238 | 18.0 | 23.0 | 0.00 | 0.00 | 0.00 | 44 | 1008.2 |
| 20260503213010 | 65 | 239 | 18.0 | 26.0 | 0.00 | 0.00 | 0.00 | 44 | 1008.3 |
| 20260503212506 | 65 | 239 | 19.0 | 26.0 | 0.00 | 0.00 | 0.00 | 43 | 1008.5 |
| 20260503212004 | 66 | 229 | 20.0 | 27.0 | 0.00 | 0.00 | 0.00 | 43 | 1008.5 |
| 20260503211515 | 66 | 223 | 21.0 | 28.0 | 0.00 | 0.00 | 0.00 | 42 | 1008.5 |
| 20260503211003 | 66 | 233 | 21.0 | 28.0 | 0.00 | 0.00 | 0.00 | 42 | 1008.4 |
| 20260503210502 | 66 | 224 | 21.0 | 28.0 | 0.00 | 0.00 | 0.00 | 43 | 1008.4 |
| 20260503210010 | 66 | 221 | 21.0 | 28.0 | 0.00 | 0.00 | 0.00 | 45 | 1008.5 |
| 20260503205506 | 65 | 227 | 22.0 | 27.0 | 0.00 | 0.00 | 0.00 | 45 | 1008.5 |
| 20260503205007 | 65 | 223 | 19.0 | 33.0 | 0.00 | 0.00 | 0.00 | 46 | 1008.8 |
| 20260503204512 | 65 | 222 | 22.0 | 33.0 | 0.00 | 0.00 | 0.00 | 45 | 1009.0 |
| 20260503204005 | 65 | 234 | 22.0 | 28.0 | 0.00 | 0.00 | 0.00 | 44 | 1008.9 |
| 20260503203504 | 65 | 212 | 17.0 | 32.0 | 0.00 | 0.00 | 0.00 | 46 | 1009.0 |
| 20260503203019 | 65 | 226 | 23.0 | 33.0 | 0.00 | 0.00 | 0.00 | 45 | 1009.1 |
| 20260503202503 | 66 | 209 | 24.0 | 33.0 | 0.00 | 0.00 | 0.00 | 44 | 1009.4 |
| 20260503202006 | 66 | 227 | 26.0 | 33.0 | 0.00 | 0.00 | 0.00 | 43 | 1009.4 |
| 20260503201514 | 66 | 227 | 21.0 | 32.0 | 0.00 | 0.00 | 0.00 | 43 | 1009.4 |
| 20260503201002 | 66 | 222 | 22.0 | 33.0 | 0.00 | 0.00 | 0.00 | 45 | 1009.4 |
| 20260503200503 | 65 | 200 | 24.0 | 33.0 | 0.00 | 0.00 | 0.00 | 44 | 1009.3 |
| 20260503200004 | 66 | 228 | 25.0 | 36.0 | 0.00 | 0.00 | 0.00 | 42 | 1009.4 |
| 20260503195503 | 66 | 230 | 28.0 | 36.0 | 0.00 | 0.00 | 0.00 | 42 | 1009.5 |
| 20260503195005 | 65 | 198 | 24.0 | 36.0 | 0.00 | 0.00 | 0.00 | 44 | 1009.5 |
| 20260503194514 | 66 | 220 | 23.0 | 36.0 | 0.00 | 0.00 | 0.00 | 45 | 1009.4 |
| 20260503194003 | 65 | 210 | 25.0 | 33.0 | 0.00 | 0.00 | 0.00 | 45 | 1009.7 |
| 20260503193506 | 65 | 216 | 25.0 | 33.0 | 0.00 | 0.00 | 0.00 | 45 | 1009.8 |
| 20260503193018 | 65 | 208 | 26.0 | 33.0 | 0.00 | 0.00 | 0.00 | 44 | 1009.7 |
| 20260503192503 | 65 | 233 | 23.0 | 34.0 | 0.00 | 0.00 | 0.00 | 45 | 1009.8 |
| 20260503192003 | 65 | 210 | 26.0 | 34.0 | 0.00 | 0.00 | 0.00 | 45 | 1009.8 |
| 20260503191512 | 65 | 207 | 25.0 | 33.0 | 0.00 | 0.00 | 0.00 | 45 | 1009.8 |
| 20260503191003 | 64 | 204 | 22.0 | 33.0 | 0.00 | 0.00 | 0.00 | 46 | 1009.9 |
| 20260503190502 | 64 | 178 | 24.0 | 32.0 | 0.00 | 0.00 | 0.00 | 46 | 1009.9 |
| 20260503190006 | 64 | 207 | 22.0 | 36.0 | 0.00 | 0.00 | 0.00 | 47 | 1010.0 |
| 20260503185502 | 63 | 219 | 24.0 | 36.0 | 0.00 | 0.00 | 0.00 | 46 | 1010.2 |
| 20260503185003 | 63 | 215 | 28.0 | 36.0 | 0.00 | 0.00 | 0.00 | 44 | 1010.3 |
| 20260503184508 | 63 | 223 | 21.0 | 32.0 | 0.00 | 0.00 | 0.00 | 48 | 1010.7 |
| 20260503184005 | 62 | 219 | 22.0 | 32.0 | 0.00 | 0.00 | 0.00 | 46 | 1011.0 |
| 20260503183504 | 62 | 224 | 22.0 | 32.0 | 0.00 | 0.00 | 0.00 | 47 | 1011.0 |
| 20260503183013 | 62 | 220 | 21.0 | 31.0 | 0.00 | 0.00 | 0.00 | 48 | 1011.2 |
| 20260503182503 | 61 | 201 | 21.0 | 28.0 | 0.00 | 0.00 | 0.00 | 47 | 1011.3 |
| 20260503182004 | 61 | 211 | 22.0 | 30.0 | 0.00 | 0.00 | 0.00 | 47 | 1011.6 |
| 20260503181517 | 61 | 224 | 24.0 | 30.0 | 0.00 | 0.00 | 0.00 | 46 | 1011.8 |
| 20260503181004 | 61 | 233 | 22.0 | 28.0 | 0.00 | 0.00 | 0.00 | 46 | 1012.0 |
| 20260503180505 | 62 | 224 | 20.0 | 29.0 | 0.00 | 0.00 | 0.00 | 46 | 1012.1 |
| 20260503180026 | 62 | 224 | 23.0 | 29.0 | 0.00 | 0.00 | 0.00 | 45 | 1012.1 |
| 20260503175504 | 62 | 227 | 20.0 | 26.0 | 0.00 | 0.00 | 0.00 | 47 | 1012.3 |
| 20260503175003 | 61 | 226 | 21.0 | 26.0 | 0.00 | 0.00 | 0.00 | 46 | 1012.5 |
| 20260503174513 | 61 | 245 | 19.0 | 26.0 | 0.00 | 0.00 | 0.00 | 48 | 1012.7 |
| 20260503174004 | 61 | 224 | 21.0 | 26.0 | 0.00 | 0.00 | 0.00 | 47 | 1012.9 |
| 20260503173503 | 61 | 215 | 17.0 | 26.0 | 0.00 | 0.00 | 0.00 | 48 | 1013.3 |
| 20260503173018 | 61 | 207 | 19.0 | 26.0 | 0.00 | 0.00 | 0.00 | 47 | 1013.2 |
| 20260503172504 | 61 | 236 | 18.0 | 24.0 | 0.00 | 0.00 | 0.00 | 49 | 1013.2 |
| 20260503172003 | 60 | 228 | 18.0 | 26.0 | 0.00 | 0.00 | 0.00 | 48 | 1013.1 |
| 20260503171512 | 60 | 224 | 19.0 | 26.0 | 0.00 | 0.00 | 0.00 | 47 | 1013.0 |
| 20260503171006 | 60 | 231 | 20.0 | 26.0 | 0.00 | 0.00 | 0.00 | 47 | 1013.1 |
| 20260503170506 | 60 | 220 | 20.0 | 25.0 | 0.00 | 0.00 | 0.00 | 47 | 1013.1 |
| 20260503150503 | 55 | 226 | 19.0 | 23.0 | 0.00 | 0.00 | 0.00 | 61 | 1015.1 |
| 20260503131005 | 50 | 224 | 16.0 | 20.0 | 0.00 | 0.00 | 0.00 | 72 | 1016.1 |
| 20260503130505 | 50 | 218 | 16.0 | 20.0 | 0.00 | 0.00 | 0.00 | 71 | 1015.9 |
| 20260503110507 | 44 | 205 | 12.0 | 16.0 | 0.00 | 0.00 | 0.00 | 75 | 1015.9 |
| 20260503090503 | 43 | 206 | 10.0 | 14.0 | 0.00 | 0.00 | 0.00 | 71 | 1016.4 |
| 20260503081518 | 43 | 221 | 11.0 | 13.0 | 0.00 | 0.00 | 0.00 | 67 | 1016.5 |
| 20260503081003 | 43 | 218 | 9.0 | 13.0 | 0.00 | 0.00 | 0.00 | 67 | 1016.6 |
| 20260503080503 | 43 | 218 | 10.0 | 13.0 | 0.00 | 0.00 | 0.00 | 66 | 1016.5 |
| 20260503072510 | 44 | 226 | 9.0 | 13.0 | 0.00 | 0.00 | 0.00 | 63 | 1016.5 |
| 20260503072008 | 44 | 205 | 10.0 | 13.0 | 0.00 | 0.00 | 0.00 | 62 | 1016.5 |
| 20260503071526 | 44 | 210 | 9.0 | 13.0 | 0.00 | 0.00 | 0.00 | 63 | 1016.6 |
| 20260503071008 | 44 | 216 | 9.0 | 12.0 | 0.00 | 0.00 | 0.00 | 63 | 1016.6 |
| 20260503070511 | 44 | 220 | 9.0 | 12.0 | 0.00 | 0.00 | 0.00 | 63 | 1016.6 |
| 20260503055011 | 44 | 211 | 6.0 | 10.0 | 0.00 | 0.00 | 0.00 | 63 | 1017.3 |
| 20260503054003 | 44 | 205 | 7.0 | 10.0 | 0.00 | 0.00 | 0.00 | 63 | 1017.4 |
| 20260503053504 | 45 | 220 | 8.0 | 10.0 | 0.00 | 0.00 | 0.00 | 63 | 1017.4 |
| 20260503052506 | 44 | 209 | 7.0 | 9.0 | 0.00 | 0.00 | 0.00 | 63 | 1017.5 |
| 20260503052008 | 44 | 208 | 6.0 | 9.0 | 0.00 | 0.00 | 0.00 | 63 | 1017.5 |
| 20260503051007 | 44 | 216 | 7.0 | 9.0 | 0.00 | 0.00 | 0.00 | 63 | 1017.5 |
| 20260503050507 | 44 | 217 | 7.0 | 9.0 | 0.00 | 0.00 | 0.00 | 64 | 1017.5 |
| 20260503050024 | 44 | 214 | 7.0 | 9.0 | 0.00 | 0.00 | 0.00 | 64 | 1017.5 |
| 20260503045509 | 44 | 224 | 7.0 | 9.0 | 0.00 | 0.00 | 0.00 | 64 | 1017.5 |
| 20260503045007 | 44 | 226 | 6.0 | 9.0 | 0.00 | 0.00 | 0.00 | 65 | 1017.5 |
| 20260503044529 | 44 | 225 | 7.0 | 9.0 | 0.00 | 0.00 | 0.00 | 65 | 1017.4 |
| 20260503044011 | 44 | 226 | 6.0 | 8.0 | 0.00 | 0.00 | 0.00 | 66 | 1017.5 |
| 20260503043510 | 44 | 228 | 7.0 | 8.0 | 0.00 | 0.00 | 0.00 | 65 | 1017.5 |
| 20260503043025 | 44 | 224 | 6.0 | 8.0 | 0.00 | 0.00 | 0.00 | 65 | 1017.5 |
| 20260503042504 | 45 | 231 | 6.0 | 8.0 | 0.00 | 0.00 | 0.00 | 65 | 1017.4 |
| 20260503042004 | 45 | 216 | 6.0 | 8.0 | 0.00 | 0.00 | 0.00 | 64 | 1017.5 |
| 20260503041520 | 45 | 215 | 6.0 | 8.0 | 0.00 | 0.00 | 0.00 | 63 | 1017.5 |
| 20260503041004 | 45 | 228 | 6.0 | 8.0 | 0.00 | 0.00 | 0.00 | 63 | 1017.5 |
| 20260503040504 | 45 | 217 | 6.0 | 8.0 | 0.00 | 0.00 | 0.00 | 63 | 1017.7 |
| 20260503040029 | 45 | 223 | 5.0 | 7.0 | 0.00 | 0.00 | 0.00 | 63 | 1017.7 |
| 20260503035505 | 45 | 228 | 5.0 | 7.0 | 0.00 | 0.00 | 0.00 | 64 | 1017.6 |
| 20260503035006 | 45 | 226 | 5.0 | 6.0 | 0.00 | 0.00 | 0.00 | 64 | 1017.6 |
| 20260503034526 | 45 | 221 | 5.0 | 6.0 | 0.00 | 0.00 | 0.00 | 65 | 1017.6 |
| 20260503034012 | 45 | 217 | 4.0 | 5.0 | 0.00 | 0.00 | 0.00 | 66 | 1017.6 |
| 20260503033509 | 45 | 224 | 3.0 | 6.0 | 0.00 | 0.00 | 0.00 | 65 | 1017.7 |
| 20260503033038 | 45 | 219 | 5.0 | 6.0 | 0.00 | 0.00 | 0.00 | 64 | 1017.8 |
| 20260503032511 | 45 | 226 | 5.0 | 6.0 | 0.00 | 0.00 | 0.00 | 64 | 1017.8 |
| 20260503032010 | 45 | 226 | 4.0 | 5.0 | 0.00 | 0.00 | 0.00 | 65 | 1017.9 |
| 20260503031535 | 45 | 228 | 4.0 | 5.0 | 0.00 | 0.00 | 0.00 | 66 | 1017.8 |
| 20260503031006 | 44 | 214 | 4.0 | 5.0 | 0.00 | 0.00 | 0.00 | 67 | 1017.9 |
| 20260503030504 | 44 | 215 | 4.0 | 5.0 | 0.00 | 0.00 | 0.00 | 69 | 1018.0 |
| 20260503030024 | 44 | 206 | 3.0 | 4.0 | 0.00 | 0.00 | 0.00 | 69 | 1017.9 |